Location: ??????
(38.0677°N, 22.9870°E)
Time: 17:44:43
(UTC+00:00)

Okean 2 Rocket - Pass Details

Date: 23 May 2024
Orbit: 614 x 637 km, 82.5° (Epoch: 23 June)

Event Time Altitude Azimuth Distance (km) Brightness Sun altitude
Rises 01:12:38 0° 358° (N) 2,893 7.2 -19.3°
Reaches altitude 10° 01:14:56 10° 5° (N) 1,985 6.4 -19.0°
Maximum altitude 01:19:11 49° 80° (E) 806 3.9 -18.4°
Drops below altitude 10° 01:23:26 10° 155° (SSE) 1,981 5.4 -17.9°
Enters shadow 01:24:04 - 157° (SSE) 2,230 5.7 -17.8°
